Location: Asheville, NC
(35.6000°N, 82.5500°W)
Time: 20:12:48
(UTC-04:00)

Vanguard 1 - Pass Details

Date: 12 December 2017
Orbit: 650 x 3833 km, 34.2° (Epoch: 24 April)

Event Time Altitude Azimuth Distance (km) Brightness Sun altitude
Rises 05:12:46 0° 178° (S) 7,623 14.7 -27.2°
Reaches altitude 10° 05:23:12 10° 155° (SSE) 6,903 14.8 -25.1°
Maximum altitude 05:31:51 13° 133° (SE) 6,606 15.0 -23.4°
Drops below altitude 10° 05:40:07 10° 111° (ESE) 6,666 15.4 -21.8°
Sets 05:49:19 0° 89° (E) 7,182 15.9 -19.9°
